Weather History for Anderson, SC

Change the Weather History Date:

Tuesday, November 1, 2011

  Actual Average Record
Temperature  
Mean Temperature 50 °F -  
Max Temperature 66 °F 70 °F 86 °F (1950)
Min Temperature 34 °F 49 °F 28 °F (1954)
Degree Days  
Heating Degree Days 15    
Moisture  
Dew Point 35 °F    
Average Humidity 65    
Maximum Humidity 93    
Minimum Humidity 27    
Precipitation  
Precipitation 0.00 in - - ()
Sea Level Pressure  
Sea Level Pressure 30.29 in    
Wind  
Wind Speed 1 mph (NNE)    
Max Wind Speed 8 mph    
Max Gust Speed -    
Visibility 10 miles    
Events      
Averages and records for this station are not official NWS values.
T = Trace of Precipitation, MM = Missing Value Source: NWS Daily Summary

Daily Weather History Graph

Daily Weather History Graph

Search for Another Location

Airport:

Trip Planner

Search our weather history database for the weather conditions in past years. The results will help you decide how hot, cold, wet, or windy it might be!

Date:

Astronomy

Nov. 01, 2011 Rise Set
Actual Time 7:50 AM EDT 6:37 PM EDT
Civil Twilight 7:24 AM EDT 7:03 PM EDT
Nautical Twilight 6:55 AM EDT 7:33 PM EDT
Astronomical Twilight 6:25 AM EDT 8:02 PM EDT
Moon 1:33 PM EDT (11/1) No Moon Set
Length of Visible Light 11h 38m
Length of Day
10h 46m
Waxing Crescent, 39% of the Moon is Illuminated
Nov 1
Waxing Crescent
Nov 2
First Quarter
Nov 10
Full
Nov 18
Last Quarter
Nov 25
New

Hourly Weather History & Observations

Time (EDT) Temp. Dew Point Humidity Pressure Visibility Wind Dir Wind Speed Gust Speed Precip Events Conditions
12:56 AM 43.0 °F 36.0 °F 76% 30.22 in 10.0 mi Calm Calm - N/A   Clear
1:56 AM 39.9 °F 36.0 °F 86% 30.24 in 10.0 mi Calm Calm - N/A   Clear
2:56 AM 39.0 °F 35.1 °F 86% 30.24 in 10.0 mi Calm Calm - N/A   Clear
3:56 AM 37.9 °F 35.1 °F 89% 30.25 in 10.0 mi Calm Calm - N/A   Clear
4:56 AM 37.0 °F 34.0 °F 89% 30.26 in 9.0 mi Calm Calm - N/A   Clear
5:56 AM 36.0 °F 33.1 °F 89% 30.26 in 9.0 mi Calm Calm - N/A   Clear
6:56 AM 34.0 °F 32.0 °F 92% 30.28 in 10.0 mi Calm Calm - N/A   Clear
7:56 AM 34.0 °F 30.9 °F 89% 30.30 in 8.0 mi Calm Calm - N/A   Clear
8:56 AM 37.4 °F 35.6 °F 93% 30.30 in 6.0 mi Calm Calm - N/A   Clear
9:56 AM 48.9 °F 39.9 °F 71% 30.33 in 10.0 mi North 3.5 mph - N/A   Clear
10:56 AM 55.9 °F 39.0 °F 53% 30.34 in 10.0 mi NW 4.6 mph - N/A   Clear
11:56 AM 59.0 °F 37.0 °F 44% 30.34 in 10.0 mi NW 3.5 mph - N/A   Clear
12:56 PM 62.6 °F 33.8 °F 34% 30.32 in 10.0 mi Variable 3.5 mph - N/A   Clear
1:56 PM 64.9 °F 30.0 °F 27% 30.29 in 10.0 mi NE 8.1 mph - N/A   Clear
2:56 PM 64.9 °F 32.0 °F 29% 30.27 in 10.0 mi Calm Calm - N/A   Clear
3:56 PM 66.2 °F 32.0 °F 28% 30.27 in 10.0 mi Calm Calm - N/A   Clear
4:56 PM 64.4 °F 32.0 °F 30% 30.27 in 10.0 mi Calm Calm - N/A   Clear
5:56 PM 63.0 °F 35.1 °F 35% 30.27 in 10.0 mi SE 3.5 mph - N/A   Clear
6:56 PM 55.9 °F 41.0 °F 57% 30.29 in 10.0 mi Calm Calm - N/A   Clear
7:56 PM 51.1 °F 39.0 °F 63% 30.31 in 10.0 mi ESE 3.5 mph - N/A   Clear
8:56 PM 48.0 °F 39.0 °F 71% 30.32 in 10.0 mi Calm Calm - N/A   Clear
9:56 PM 45.0 °F 37.9 °F 76% 30.33 in 10.0 mi Calm Calm - N/A   Clear
10:56 PM 44.1 °F 37.9 °F 79% 30.33 in 10.0 mi Calm Calm - N/A   Clear